www.pogodaiklimat.ru

Погода и климат >> Архив погоды >> Австралия >> Западная Австралия >> Каррата


ПОГОДА в Каррате

  • Прогноз погоды в Каррате
  • Монитор погоды в Каррате

АРХИВ ПОГОДЫ в Каррате

Время (UTC), дата Ветер
(напр.,м/с)
 
Видим.   Явления Облачность Т
(С)
Тd
(С)
f
(%)
Тe
(С)
Тes
(С)
Комфортность P
(гПа)
Po
(гПа)
Тmin
(С)
Tmax
(С)
R
(мм)
R24
(мм)
S
(см)
04 19.06 СВ 5 н/о н/о +25.9 +8.8 34 +26 +26 жарко 1013.9 1013.2
06 19.06 СВ 7 н/о н/о +25.9 +8.4 33 +26 +26 жарко 1012.9 1012.2
07 19.06 СВ 6 н/о н/о +25.1 +8.1 34 +25 +25 комфорт 1012.6 1011.9
09 19.06 СВ 4 н/о н/о +22.8 +14.1 58 +26 +26 жарко 1013.1 1012.4
10 19.06 СВ 3 н/о 9/0
[]
+22.1 +15.5 66 +26 +26 душно 1013.4 1012.7
12 19.06 С 2 н/о н/о +21.6 +15.4 68 +25 +25 комфорт 1014.1 1013.4
13 19.06 штиль 0 н/о 4/0
[]
+20.8 +16.2 75 +24 +24 комфорт 1014.6 1013.9 +27.2
15 19.06 ЮВ 1 н/о н/о +19.8 +14.4 71 +23 +23 комфорт 1014.9 1014.2
16 19.06 Ю 3 н/о 10/0
[]
+19.7 +13.9 69 +22 +22 комфорт 1014.9 1014.2
18 19.06 Ю 3 н/о н/о +18.0 +12.5 70 +18 +18 1014.6 1013.9
19 19.06 Ю 2 н/о 1/0
[]
+18.2 +12.4 69 +19 +19 1014.4 1013.7
21 19.06 Ю 4 н/о н/о +17.4 +11.4 68 +17 +17 1014.0 1013.3
22 19.06 Ю 2 н/о н/о +16.6 +10.9 69 +17 +17 1014.4 1013.7
00 20.06 СВ 2 н/о н/о +20.9 +15.2 70 +25 +25 комфорт 1016.0 1015.3
01 20.06 В 2 н/о 5/0 2000 м
[]
+22.9 +15.7 64 +27 +30 душно 1016.3 1015.6 +16.6
03 20.06 СВ 4 н/о н/о +24.9 +18.6 68 +30 +30 душно 1015.6 1014.9
04 20.06 СВ 3 н/о 6/0
[]
+24.9 +17.6 64 +29 +36 душно 1015.2 1014.5
06 20.06 СВ 4 н/о н/о +24.6 +19.7 74 +30 +30 очень
душно
1013.9 1013.2
07 20.06 СВ 6 н/о 8/0 2000 м
[]
+24.6 +20.3 77 +30 +32 очень
душно
1014.1 1013.4
09 20.06 СВ 5 н/о н/о +22.9 +20.6 87 +30 +30 очень
душно
1014.1 1013.4
10 20.06 СВ 3 н/о н/о +22.2 +20.8 92 +29 +29 очень
душно
1014.8 1014.1
12 20.06 СВ 3 н/о н/о +21.2 +20.4 95 +26 +26 душно 1015.7 1015.0
13 20.06 В 2 н/о н/о +20.7 +20.0 96 +26 +26 душно 1015.8 1015.1 +25.4
15 20.06 СВ 3 н/о н/о +20.2 +19.9 98 +24 +24 комфорт 1015.6 1014.9
16 20.06 В 3 н/о н/о +20.3 +20.0 98 +25 +25 комфорт 1015.4 1014.7
18 20.06 В 4 н/о н/о +21.1 +20.4 96 +26 +26 душно 1014.8 1014.1
19 20.06 В 3 н/о 10/10 1000 м
[]
+21.3 +21.0 98 +27 +27 душно 1014.5 1013.8
21 20.06 СВ 2 н/о н/о +21.0 +20.7 98 +27 +27 душно 1014.6 1013.9
22 20.06 Ю 2 н/о {туман} 10/0 2000 м
[]
+20.8 +20.5 98 +26 +26 душно 1014.7 1014.0
00 21.06 В 2 н/о н/о +20.2 +19.9 98 +25 +25 комфорт 1016.5 1015.8
01 21.06 В 6 3500 м туман 1/1 200 м
[]
+19.7 +19.4 98 +22 +24 комфорт 1017.0 1016.3 +19.8
03 21.06 В 7 н/о н/о +21.6 +20.2 92 +27 +27 душно 1016.7 1016.0
04 21.06 В 9 н/о {туман} 8/8 1500 м
[]
+22.9 +19.3 80 +29 +29 очень
душно
1015.8 1015.1
06 21.06 В 8 н/о н/о +19.5 +18.3 93 +21 +21 комфорт 1015.2 1014.5
07 21.06 В 8 н/о {туман} 10/10 1500 м
[]
+20.4 +18.7 90 +24 +24 комфорт 1014.8 1014.1
09 21.06 ЮВ 4 н/о н/о +19.0 +18.7 98 +21 +21 комфорт 1015.8 1015.1
10 21.06 ЮВ 5 н/о в посл. час дождь {туман} 9/9 1000 м
[]
+19.1 +18.8 98 +21 +21 комфорт 1016.1 1015.4
12 21.06 В 5 н/о н/о +19.2 +18.9 98 +21 +21 комфорт 1016.8 1016.1
13 21.06 ЮВ 5 н/о {туман} 10/0 2000 м
[]
+19.2 +18.9 98 +21 +21 комфорт 1016.3 1015.6 +23.5
15 21.06 Ю 4 н/о н/о +18.8 +18.5 98 +20 +20 1015.8 1015.1
16 21.06 ЮВ 4 н/о 10/0
[]
+18.9 +18.6 98 +20 +20 1015.3 1014.6
18 21.06 В 3 н/о н/о +19.0 +18.5 97 +21 +21 комфорт 1014.5 1013.8
19 21.06 В 3 н/о 8/0
[]
+19.2 +18.4 95 +21 +21 комфорт 1014.4 1013.7
21 21.06 В 3 н/о н/о +19.0 +18.0 94 +21 +21 комфорт 1014.5 1013.8
22 21.06 В 3 н/о 9/0
[]
+18.8 +17.8 94 +20 +20 1015.0 1014.3
00 22.06 В 4 н/о н/о +20.1 +14.9 72 +23 +23 комфорт 1016.1 1015.4
01 22.06 В 7 н/о 5/0
[]
+22.3 +13.4 57 +25 +26 комфорт 1016.1 1015.4 +18.8
03 22.06 В 9 н/о н/о +23.8 +14.2 55 +26 +26 жарко 1015.6 1014.9
04 22.06 В 9 н/о н/о +23.9 +14.9 57 +27 +27 жарко 1015.2 1014.5
06 22.06 В 8 н/о н/о +24.1 +17.8 68 +28 +28 душно 1013.9 1013.2
07 22.06 В 8 н/о н/о +23.9 +18.5 72 +28 +28 душно 1013.5 1012.8
09 22.06 В 6 н/о н/о +22.7 +19.1 80 +29 +29 очень
душно
1013.7 1013.0
10 22.06 В 5 н/о н/о +21.7 +19.6 88 +27 +27 душно 1014.2 1013.5
12 22.06 В 5 н/о н/о +20.3 +18.6 90 +24 +24 комфорт 1014.8 1014.1
13 22.06 ЮВ 4 н/о н/о +19.8 +18.5 92 +23 +23 комфорт 1015.3 1014.6 +24.6
15 22.06 В 2 н/о н/о +19.5 +18.0 91 +22 +22 комфорт 1015.5 1014.8
16 22.06 ЮВ 4 н/о 9/0
[]
+20.0 +17.4 85 +23 +23 комфорт 1015.1 1014.4
18 22.06 штиль 0 н/о н/о +19.4 +17.2 87 +21 +21 комфорт 1014.5 1013.8
19 22.06 В 2 н/о 10/0
[]
+19.0 +17.1 89 +21 +21 комфорт 1014.2 1013.5
21 22.06 СВ 4 н/о н/о +19.2 +17.0 87 +21 +21 комфорт 1014.4 1013.7
22 22.06 В 3 н/о 9/0
[]
+18.9 +17.0 89 +20 +20 1014.6 1013.9
00 23.06 В 5 н/о н/о +20.3 +13.0 63 +22 +22 комфорт 1015.8 1015.1
01 23.06 В 6 н/о н/о +21.9 +14.0 61 +25 +25 комфорт 1016.6 1015.9 +18.8
03 23.06 В 6 н/о н/о +23.6 +13.5 53 +26 +26 жарко 1016.4 1015.7
04 23.06 В 6 н/о н/о +24.4 +15.6 58 +27 +27 жарко 1016.0 1015.3
06 23.06 В 6 н/о н/о +25.0 +17.5 63 +29 +29 душно 1014.9 1014.2
07 23.06 СВ 5 н/о н/о +25.6 +18.5 65 +30 +30 душно 1014.8 1014.1
09 23.06 СВ 4 н/о н/о +24.0 +20.3 80 +30 +30 очень
душно
1015.7 1015.0
10 23.06 В 3 н/о н/о +22.2 +20.5 90 +29 +29 очень
душно
1016.3 1015.6
12 23.06 В 4 н/о н/о +21.0 +19.8 93 +26 +26 душно 1017.0 1016.3
13 23.06 В 3 н/о н/о +20.4 +19.2 93 +25 +25 комфорт 1017.4 1016.7
15 23.06 В 2 н/о н/о +19.1 +18.3 95 +22 +22 комфорт 1017.4 1016.7
16 23.06 СВ 3 н/о н/о +18.8 +18.1 96 +20 +20 1017.2 1016.5
18 23.06 В 3 н/о н/о +18.2 +17.9 98 +19 +19 1016.7 1016.0
19 23.06 Ю 2 н/о н/о +17.7 +17.4 98 +18 +18 1016.4 1015.7
21 23.06 ЮВ 1 н/о н/о +17.0 +16.7 98 +18 +18 1016.3 1015.6
22 23.06 штиль 0 н/о н/о +16.6 +16.3 98 +16 +16 1016.7 1016.0
00 24.06 штиль 0 н/о н/о +19.1 +18.8 98 +21 +21 комфорт 1017.6 1016.9
01 24.06 В 3 н/о н/о +21.9 +18.7 82 +27 +27 душно 1017.9 1017.2
06 24.06 СВ 5 н/о н/о +25.7 +15.1 52 +29 +29 душно 1016.6 1015.9
07 24.06 СВ 5 н/о н/о +26.0 +12.5 43 +28 +28 жарко 1016.7 1016.0
09 24.06 СВ 4 н/о н/о +25.0 +8.9 36 +26 +26 жарко 1017.5 1016.8
10 24.06 С 2 н/о н/о +22.9 +11.9 50 +25 +25 комфорт 1018.0 1017.3
12 24.06 штиль 0 н/о н/о +20.4 +14.1 67 +23 +23 комфорт 1019.2 1018.5
13 24.06 штиль 0 н/о 4/0
[]
+19.9 +13.6 67 +22 +22 комфорт 1019.4 1018.7
15 24.06 Ю 3 н/о н/о +17.5 +13.6 78 +18 +18 1019.1 1018.4
16 24.06 Ю 3 н/о н/о +16.7 +12.7 77 +17 +17 1018.9 1018.2
18 24.06 Ю 4 н/о н/о +16.5 +9.0 61 +16 +16 1018.0 1017.3
19 24.06 Ю 3 н/о н/о +15.3 +9.2 67 +15 +15 1017.7 1017.0
21 24.06 Ю 4 н/о н/о +15.4 +8.2 62 +15 +15 1018.0 1017.3
22 24.06 ЮВ 2 н/о н/о +15.0 +9.1 68 +15 +15 1018.3 1017.6
00 25.06 ЮВ 1 н/о н/о +17.6 +12.1 70 +19 +19 1019.3 1018.6
01 25.06 В 2 н/о н/о +21.6 +10.7 50 +23 +23 комфорт 1019.7 1019.0
03 25.06 СВ 4 н/о н/о +25.7 +10.3 38 +27 +27 жарко 1019.5 1018.8
04 25.06 СВ 4 н/о н/о +26.9 +11.4 38 +28 +28 жарко 1018.9 1018.2
06 25.06 СВ 5 н/о н/о +28.1 +1.6 18 +26 +26 жарко 1017.6 1016.9
07 25.06 СВ 6 н/о н/о +27.2 +6.6 27 +27 +27 жарко 1017.8 1017.1
09 25.06 СВ 4 н/о н/о +25.5 +6.7 30 +25 +25 комфорт 1017.8 1017.1
10 25.06 СВ 2 н/о н/о +22.6 +12.0 51 +25 +25 комфорт 1018.0 1017.3
12 25.06 штиль 0 н/о н/о +19.3 +13.5 69 +21 +21 комфорт 1018.5 1017.8
13 25.06 штиль 0 н/о н/о +18.6 +12.4 67 +19 +19 1018.6 1017.9 +28.9
15 25.06 Ю 4 н/о н/о +17.2 +8.9 58 +17 +17 1018.2 1017.5
16 25.06 Ю 3 н/о н/о +16.7 +8.4 58 +17 +17 1017.8 1017.1
18 25.06 штиль 0 н/о н/о +16.9 +7.8 55 +17 +17 1017.0 1016.3
19 25.06 Ю 1 н/о н/о +14.9 +7.0 59 +16 +16 1016.7 1016.0
21 25.06 Ю 4 н/о н/о +14.8 +5.6 54 +14 +14 1016.3 1015.6
22 25.06 Ю 4 н/о н/о +14.2 +5.8 57 +13 +13 1016.6 1015.9
00 26.06 штиль 0 н/о н/о +18.0 +6.8 48 +18 +18 1017.8 1017.1
01 26.06 СВ 3 н/о н/о +22.1 +4.7 32 +22 +22 комфорт 1018.3 1017.6 +13.9
03 26.06 СВ 4 н/о н/о +25.2 +6.9 31 +25 +25 комфорт 1017.9 1017.2

 

Местоположение метеостанции Каррата (Западная Австралия, Австралия): широта -20.72 долгота 116.77 высота над уровнем моря 6 м.

В архиве по умолчанию представлена погода в Каррате за последнюю неделю. Архивные данные за месяц целиком и за предыдущие месяцы, начиная с января 2011 года, Вы можете получить, выбрав интересующий диапазон дат из раскрывающегося списка и нажав кнопку "Ввод!".


*Определитесь, кто Вы:
робот инопланетянин человек

Внимание! Время в таблицах - всемирное. Для получения местного времени необходимо прибавить поправку, которая равна 8 ч.

Смотрите также архив погоды в соседних городах и на ближайших метеорологических станциях:

Погода в Роборн аэропорту (Западная Австралия, Австралия) (40 км)
Погода в Марди (Западная Австралия, Австралия) (98 км)
Погода на Острове Варанас (Западная Австралия, Австралия) (125 км)
Погода в Барроу-Айленд (Западная Австралия, Австралия) (144 км)
Погода в Порт-Хедленде Apardoo (Западная Австралия, Австралия) (198 км)
Погода на Острове Тевенард (Западная Австралия, Австралия) (199 км)
Погода в Онслоу (Западная Австралия, Австралия) (201 км)
Погода в Параберду (Западная Австралия, Австралия) (291 км)
Погода в Марбл-баре (Западная Австралия, Австралия) (314 км)
Погода в Лермонте (Западная Австралия, Австралия) (325 км)

Пояснения к столбцам:

Ветер - указаны скорость ветра в м/с - средняя за 10 мин, порывы в срок и между сроками (в фигурных скобках) и направление, откуда дует ветер: С - северный, СВ - северо-восточный, В - восточный, ЮВ - юго-восточный, Ю - южный, ЮЗ - юго-западный, З - западный, СЗ - северо-западный.
Видимость - горизонтальная дальность видимости в метрах или километрах. При видимости от 1 до 10 км при отсутствии осадков обычно наблюдается дымка, при ухудшении видимости до 1 км и менее - туман. В сухую погоду видимость может ухудшаться дымом, пылью или мглою.
Явления - указаны атмосферные явления, наблюдавшиеся в срок или в последний час перед сроком; фигурными скобками обозначены явления, наблюдавшиеся между сроками (за 1-3 часа до срока); квадратными скобками обозначены град или гололедные отложения с указанием их диаметра в мм.
Облачность - указаны через наклонную черту общая и нижняя облачность в баллах и высота нижней границы облаков в метрах; квадратными скобками обозначены формы облаков: Ci - перистые, Cs - перисто-слоистые, Cc - перисто-кучевые, Ac - высококучевые, As - высокослоистые, Sc - слоисто-кучевые, Ns - слоисто-дождевые, Cu - кучевые, Cb - кучево-дождевые. Подробнее классификацию облаков см. в Атласе облаков (PDF).
T - Температура воздуха - температура, измеренная на высоте 2 м над землей.
Td - Температура точки росы - температура, при понижении до которой содержащийся в воздухе водяной пар достигнет насыщения.
f - Относительная влажность воздуха - влажноcть воздуха, измеренная на высоте 2 м над землей.
Te - Эффективная температура - температура, которую ощущает одетый по сезону человек в тени. Характеристика душности погоды. При расчете учитывается влияние влажности воздуха и скорости ветра на теплоощущения человека.
Tes - Эффективная температура на солнце - температура, которую ощущает человек, с поправкой на солнечный нагрев. Характеристика знойности погоды. Зависит от высоты солнца над горизонтом, облачности и скорости ветра. Ночью, в пасмурную погоду, а также при ветре 12 м/с и более поправка равна нулю.
P - Атмосферное давление - приведенное к уровню моря атмосферное давление.
Po - Атмосферное давление - измеренное на уровне метеостанции атмосферное давление.
Tmin - Минимальная температура - минимум температуры воздуха на высоте 2 м над землей.
Tmax - Максимальная температура - максимум температуры воздуха на высоте 2 м над землей.
R - Количество осадков - Количество выпавших осадков за период времени, мм. При наведении курсора мыши на число - период времени, за который выпало указанное количество осадков.
R24 - Количество осадков - Количество выпавших осадков за 24 часа, мм.
S - Снежный покров - Высота снежного покрова, см. При наведении курсора мыши на число - состояние снежного покрова и степень покрытия местности в баллах.